Regional Weather Roundup
Issued by NWS

Home | Current Version | Previous Version | Graphics & Text | Print | Product List | Glossary On
Versions: 1 2 3 4 5 6 7 8 9 10 11 12 13 14 15 16 17 18 19 20 21 22 23 24 25 26 27 28 29 30 31 32 33 34 35 36 37 38 39 40 41 42 43 44 45 46 47 48 49 50
000
ASUS43 KBIS 052320
RWRND

NORTH DAKOTA REGIONAL WEATHER ROUNDUP
NATIONAL WEATHER SERVICE BISMARCK ND
500 PM CST THU MAR 05 2015

NOTE: "FAIR" INDICATES FEW OR NO CLOUDS BELOW 12,000 FEET WITH NO
SIGNIFICANT WEATHER AND/OR OBSTRUCTIONS TO VISIBILITY.


NDZ001>003-009>011-017-060000-
NORTHWEST NORTH DAKOTA

CITY           SKY/WX    TMP DP  RH WIND       PRES   REMARKS
WILLISTON      SUNNY     41  18  39 W9        30.02S
MINOT          SUNNY     29  13  51 SW14G20   30.00S WCI  18
MINOT AFB      SUNNY     28  18  66 W12       29.99F WCI  18
$$

NDZ018>021-031>035-040>046-060000-
SOUTHWEST NORTH DAKOTA

CITY           SKY/WX    TMP DP  RH WIND       PRES   REMARKS
BISMARCK       SUNNY     40  14  34 W10       30.05R
DICKINSON      SUNNY     42  10  27 NW18      30.01S
GARRISON         N/A     31  16  54 W13       30.03R
HETTINGER ARPT SUNNY     43  11  27 NW20      30.05R
$$

NDZ004>008-012>016-024-026-027-054-060000-
NORTHEAST NORTH DAKOTA

CITY           SKY/WX    TMP DP  RH WIND       PRES   REMARKS
GRAND FORKS    SUNNY     25  11  55 S18G28    30.12F WCI  11
GRND FRKS AFB  SUNNY     26   9  49 SW17      30.10F WCI  13
DEVILS LAKE    SUNNY     25  14  63 SW12      30.04S WCI  14
$$

NDZ022-023-025-028>030-036>039-047>053-060000-
SOUTHEAST NORTH DAKOTA

CITY           SKY/WX    TMP DP  RH WIND       PRES   REMARKS
FARGO          SUNNY     25   7  46 S20       30.20F WCI  11
JAMESTOWN      SUNNY     27  13  55 S14       30.08F WCI  16
$$




USA.gov is the U.S. government's official web portal to all federal, state and local government web resources and services.